029  
ASUS43 KBIS 191910  
RWRND  
 
NORTH DAKOTA REGIONAL WEATHER ROUNDUP  
NATIONAL WEATHER SERVICE BISMARCK ND  
200 PM CDT TUE MAR 19 2019  
 
NOTE: "FAIR" INDICATES FEW OR NO CLOUDS BELOW 12,000 FEET WITH NO  
SIGNIFICANT WEATHER AND/OR S TO VISIBILITY
.  
 
 
NDZ001>003-009>011-017-192000-  
NORTHWEST NORTH DAKOTA  
 
CITY SKY/WX TMP DP RH WIND PRES REMARKS
 
WILLISTON MOSUNNY 37 28 70 W7 30.23F  
MINOT CLOUDY 39 28 64 W17 30.16F  
MINOT AFB CLOUDY 37 30 75 W9 30.14F  

 
 
NDZ018>021-031>035-040>046-192000-  
SOUTHWEST NORTH DAKOTA  
 
CITY SKY/WX TMP DP RH WIND PRES REMARKS
 
BISMARCK SUNNY 40 29 64 NW10 30.24R  
DICKINSON SUNNY 37 29 72 W15 30.22S  
GARRISON N/A 38 30 73 W14 30.19F  
HETTINGER ARPT SUNNY 33 28 81 W13 30.27R  

 
 
NDZ004>008-012>016-024-026-027-054-192000-  
NORTHEAST NORTH DAKOTA  
 
CITY SKY/WX TMP DP RH WIND PRES REMARKS
 
GRAND FORKS CLOUDY 34 29 82 SW7 30.13F  
GRND FRKS AFB PTSUNNY 39 30 70 W9 30.13F  
DEVILS LAKE PTSUNNY 30 30 100 SW13 30.13F WCI 20  

 
 
NDZ022-023-025-028>030-036>039-047>053-192000-  
SOUTHEAST NORTH DAKOTA  
 
CITY SKY/WX TMP DP RH WIND PRES REMARKS
 
FARGO SUNNY 34 31 88 SW10 30.17F FOG  
JAMESTOWN SUNNY 34 30 85 W13 30.17F  

 
 
 
 
CLICK HERE TO GO TO PREVIOUS BULLETINS.

The Nexlab ND Page Main Text Page